Weather History for KMYL - June, 2014

Change the Weather History Date:

Saturday, June 7, 2014

  Actual Average Record
Temperature  
Mean Temperature 54 °F 51 °F  
Max Temperature 70 °F 65 °F 90 °F (1977)
Min Temperature 38 °F 36 °F 26 °F (1995)
Degree Days  
Heating Degree Days 11 14  
Month to date heating degree days 67 105  
Since 1 June heating degree days 67 105  
Since 1 July heating degree days 8341 9334  
Cooling Degree Days 0 0  
Month to date cooling degree days 0 0  
Year to date cooling degree days 0 0  
Since 1 June cooling degree days 0 0  
Growing Degree Days 7 (Base 50)    
Moisture  
Dew Point 29 °F    
Average Humidity 50    
Maximum Humidity 79    
Minimum Humidity 20    
Precipitation  
Precipitation 0.00 in 0.08 in 0.98 in (1953)
Month to date precipitation 0.21 0.57  
Year to date precipitation 14.59 10.35  
Sea Level Pressure  
Sea Level Pressure 29.98 in    
Wind  
Wind Speed 6 mph (NW)    
Max Wind Speed 16 mph    
Max Gust Speed 19 mph    
Visibility 10 miles    
Events      
T = Trace of Precipitation, MM = Missing Value Source: NWS Daily Summary

Daily Weather History Graph

Daily Weather History Graph

Search for Another Location

Airport or City:

Trip Planner

Search our weather history database for the weather conditions in past years. The results will help you decide how hot, cold, wet, or windy it might be!

Date:

Astronomy

Jun. 07, 2014 Rise Set
Actual Time 5:58 AM MDT 9:28 PM MDT
Civil Twilight 5:21 AM MDT 10:05 PM MDT
Nautical Twilight 4:33 AM MDT 10:53 PM MDT
Astronomical Twilight 3:31 AM MDT 11:56 PM MDT
Moon 3:37 PM MDT (6/7) 2:37 AM MDT (6/7)
Length of Visible Light 16h 43m
Length of Day
15h 29m
Waxing Gibbous, 68% of the Moon is Illuminated
Jun 7
Waxing Gibbous
Jun 12
Full
Jun 19
Last Quarter
Jun 27
New
Jul 5
First Quarter

Hourly Weather History & Observations

Time (MDT) Temp. Windchill Dew Point Humidity Pressure Visibility Wind Dir Wind Speed Gust Speed Precip Events Conditions
12:51 AM 51.1 °F - 28.9 °F 43% 29.98 in 10.0 mi North 4.6 mph - N/A   Clear
1:51 AM 51.1 °F - 28.9 °F 43% 29.99 in 10.0 mi North 5.8 mph - N/A   Clear
2:51 AM 45.0 °F 43.5 °F 30.9 °F 58% 30.00 in 10.0 mi NW 3.5 mph - N/A   Clear
3:51 AM 48.9 °F - 28.9 °F 46% 29.98 in 10.0 mi North 5.8 mph - N/A   Clear
4:51 AM 46.0 °F 42.5 °F 30.9 °F 56% 29.98 in 10.0 mi North 6.9 mph - N/A   Clear
8:51 AM 52.0 °F - 33.1 °F 49% 30.01 in 10.0 mi Variable 3.5 mph - N/A   Clear
9:51 AM 60.1 °F - 30.0 °F 32% 29.99 in 10.0 mi Variable 3.5 mph - N/A   Clear
10:51 AM 63.0 °F - 27.0 °F 26% 29.98 in 10.0 mi Variable 3.5 mph - N/A   Clear
11:51 AM 64.9 °F - 26.1 °F 23% 29.98 in 10.0 mi North - - N/A   Clear
12:51 PM 66.0 °F - 30.0 °F 26% 29.97 in 10.0 mi NW 8.1 mph - N/A   Clear
1:51 PM 66.9 °F - 30.0 °F 25% 29.96 in 10.0 mi SW 9.2 mph - N/A   Clear
2:51 PM 66.9 °F - 28.0 °F 23% 29.98 in 10.0 mi West 10.4 mph 18.4 mph N/A   Clear
4:51 PM 68.0 °F - 28.9 °F 23% 29.97 in 10.0 mi WNW 12.7 mph - N/A   Clear
5:51 PM 69.1 °F - 28.0 °F 22% 29.97 in 10.0 mi NNW 8.1 mph 16.1 mph N/A   Partly Cloudy
6:51 PM 69.1 °F - 27.0 °F 21% 29.96 in 10.0 mi North 11.5 mph - N/A   Mostly Cloudy
7:51 PM 64.9 °F - 30.9 °F 28% 29.98 in 10.0 mi NNW 10.4 mph - N/A   Mostly Cloudy
8:51 PM 62.1 °F - 30.0 °F 30% 29.97 in 10.0 mi NNW 6.9 mph - N/A   Clear
9:51 PM 59.0 °F - 30.9 °F 35% 29.97 in 10.0 mi NW 5.8 mph - N/A   Clear
10:51 PM 55.9 °F - 30.9 °F 39% 29.99 in 10.0 mi WNW 5.8 mph - N/A   Clear
11:51 PM 55.9 °F - 30.0 °F 37% 30.00 in 10.0 mi Variable 6.9 mph - N/A   Clear